Time,TemperatureF,DewpointF,PressureIn,WindDirection,WindDirectionDegrees,WindSpeedMPH,WindSpeedGustMPH,Humidity,HourlyPrecipIn,Conditions,Clouds,dailyrainin,SoftwareType,DateUTC
2013-04-01 00:00:00,54.0,53.2,29.77,SSW,202,6.0,10.0,97,0.00,,,0.36,Weather View 32 v70,2013-04-01 04:00:00,
2013-04-01 00:02:00,54.0,53.2,29.77,SSW,202,6.0,10.0,97,0.00,,,0.00,Weather View 32 v70,2013-04-01 04:02:00,
2013-04-01 00:07:00,54.0,53.2,29.77,SW,225,3.0,10.0,97,0.00,,,0.00,Weather View 32 v70,2013-04-01 04:07:00,
2013-04-01 00:12:00,54.0,53.2,29.77,West,270,1.0,10.0,97,0.00,,,0.00,Weather View 32 v70,2013-04-01 04:12:00,
2013-04-01 00:17:00,54.0,52.9,29.77,West,270,3.0,10.0,96,0.00,,,0.00,Weather View 32 v70,2013-04-01 04:17:00,
2013-04-01 00:22:00,54.0,52.6,29.77,WNW,292,3.0,10.0,95,0.00,,,0.00,Weather View 32 v70,2013-04-01 04:22:00,
2013-04-01 00:27:00,55.0,53.6,29.77,NW,315,5.0,10.0,95,0.00,,,0.00,Weather View 32 v70,2013-04-01 04:27:00,
2013-04-01 00:32:00,54.0,52.6,29.77,NNW,338,5.0,10.0,95,0.00,,,0.00,Weather View 32 v70,2013-04-01 04:32:00,
2013-04-01 00:37:00,54.0,52.9,29.78,NNE,22,4.0,10.0,96,0.00,,,0.00,Weather View 32 v70,2013-04-01 04:37:00,
2013-04-01 00:42:00,54.0,53.4,29.78,NNE,22,7.0,10.0,98,0.00,,,0.00,Weather View 32 v70,2013-04-01 04:42:00,
2013-04-01 00:48:00,53.0,52.7,29.78,NNW,338,9.0,10.0,99,0.00,,,0.00,Weather View 32 v70,2013-04-01 04:48:00,
2013-04-01 00:53:00,53.0,52.7,29.78,NW,315,6.0,11.0,99,0.00,,,0.00,Weather View 32 v70,2013-04-01 04:53:00,
2013-04-01 00:58:00,53.0,53.0,29.79,NNW,338,7.0,12.0,100,0.00,,,0.00,Weather View 32 v70,2013-04-01 04:58:00,
2013-04-01 01:03:00,52.0,52.0,29.79,North,0,10.0,12.0,100,0.00,,,0.00,Weather View 32 v70,2013-04-01 05:03:00,
2013-04-01 01:08:00,52.0,52.0,29.78,North,0,8.0,12.0,100,0.00,,,0.00,Weather View 32 v70,2013-04-01 05:08:00,
2013-04-01 01:13:00,52.0,52.0,29.79,NW,315,5.0,12.0,100,0.00,,,0.00,Weather View 32 v70,2013-04-01 05:13:00,
2013-04-01 01:18:00,51.0,51.0,29.79,NNE,22,5.0,14.0,100,0.00,,,0.00,Weather View 32 v70,2013-04-01 05:18:00,
2013-04-01 01:23:00,51.0,51.0,29.79,NNE,22,5.0,14.0,100,0.00,,,0.00,Weather View 32 v70,2013-04-01 05:23:00,
2013-04-01 01:28:00,51.0,51.0,29.79,North,0,9.0,14.0,100,0.00,,,0.00,Weather View 32 v70,2013-04-01 05:28:00,
2013-04-01 01:33:00,51.0,51.0,29.79,North,0,6.0,14.0,100,0.00,,,0.00,Weather View 32 v70,2013-04-01 05:33:00,
2013-04-01 01:38:00,50.0,50.0,29.79,North,0,7.0,15.0,100,0.00,,,0.00,Weather View 32 v70,2013-04-01 05:38:00,
2013-04-01 01:43:00,50.0,50.0,29.79,NNE,22,7.0,15.0,100,0.00,,,0.00,Weather View 32 v70,2013-04-01 05:43:00,
2013-04-01 01:48:00,50.0,50.0,29.79,North,0,5.0,15.0,100,0.00,,,0.00,Weather View 32 v70,2013-04-01 05:48:00,
2013-04-01 01:53:00,50.0,50.0,29.78,NNE,22,10.0,15.0,100,0.00,,,0.00,Weather View 32 v70,2013-04-01 05:53:00,
2013-04-01 01:58:00,49.0,49.0,29.79,NW,315,5.0,15.0,100,0.00,,,0.00,Weather View 32 v70,2013-04-01 05:58:00,
2013-04-01 02:03:00,49.0,49.0,29.79,NW,315,7.0,15.0,100,0.00,,,0.00,Weather View 32 v70,2013-04-01 06:03:00,
2013-04-01 02:08:00,49.0,49.0,29.79,NW,315,6.0,15.0,100,0.00,,,0.00,Weather View 32 v70,2013-04-01 06:08:00,
2013-04-01 02:13:00,49.0,49.0,29.78,NW,315,5.0,15.0,100,0.00,,,0.00,Weather View 32 v70,2013-04-01 06:13:00,
2013-04-01 02:18:00,49.0,49.0,29.78,NW,315,6.0,15.0,100,0.00,,,0.00,Weather View 32 v70,2013-04-01 06:18:00,
2013-04-01 02:23:00,49.0,49.0,29.77,North,0,6.0,15.0,100,0.00,,,0.00,Weather View 32 v70,2013-04-01 06:23:00,
2013-04-01 02:28:00,49.0,49.0,29.77,NW,315,5.0,15.0,100,0.00,,,0.00,Weather View 32 v70,2013-04-01 06:28:00,
2013-04-01 02:33:00,49.0,49.0,29.77,North,0,6.0,15.0,100,0.00,,,0.00,Weather View 32 v70,2013-04-01 06:33:00,
2013-04-01 02:38:00,49.0,49.0,29.78,NW,315,5.0,12.0,100,0.00,,,0.00,Weather View 32 v70,2013-04-01 06:38:00,
2013-04-01 02:43:00,49.0,49.0,29.78,North,0,7.0,11.0,100,0.00,,,0.00,Weather View 32 v70,2013-04-01 06:43:00,
2013-04-01 02:48:00,49.0,49.0,29.78,WNW,292,9.0,11.0,100,0.00,,,0.00,Weather View 32 v70,2013-04-01 06:48:00,
2013-04-01 02:53:00,49.0,49.0,29.78,NW,315,8.0,14.0,100,0.00,,,0.00,Weather View 32 v70,2013-04-01 06:53:00,
2013-04-01 02:58:00,49.0,49.0,29.79,WNW,292,5.0,14.0,100,0.00,,,0.00,Weather View 32 v70,2013-04-01 06:58:00,
2013-04-01 03:03:00,49.0,49.0,29.78,NW,315,11.0,14.0,100,0.00,,,0.00,Weather View 32 v70,2013-04-01 07:03:00,
2013-04-01 03:08:00,49.0,49.0,29.78,North,0,6.0,15.0,100,0.00,,,0.00,Weather View 32 v70,2013-04-01 07:08:00,
2013-04-01 03:13:00,49.0,49.0,29.78,NNW,338,7.0,15.0,100,0.00,,,0.00,Weather View 32 v70,2013-04-01 07:13:00,
2013-04-01 03:18:00,49.0,49.0,29.78,NNE,22,6.0,15.0,100,0.00,,,0.00,Weather View 32 v70,2013-04-01 07:18:00,
2013-04-01 03:23:00,49.0,49.0,29.78,WNW,292,8.0,15.0,100,0.00,,,0.00,Weather View 32 v70,2013-04-01 07:23:00,
2013-04-01 03:28:00,49.0,49.0,29.77,WNW,292,5.0,15.0,100,0.00,,,0.00,Weather View 32 v70,2013-04-01 07:28:00,
2013-04-01 03:33:00,49.0,49.0,29.77,NNW,338,6.0,15.0,100,0.00,,,0.00,Weather View 32 v70,2013-04-01 07:33:00,
2013-04-01 03:38:00,49.0,49.0,29.77,NW,315,6.0,15.0,100,0.00,,,0.00,Weather View 32 v70,2013-04-01 07:38:00,
2013-04-01 03:43:00,49.0,49.0,29.77,North,0,2.0,15.0,100,0.00,,,0.00,Weather View 32 v70,2013-04-01 07:43:00,
2013-04-01 03:48:00,49.0,49.0,29.77,NNW,338,4.0,15.0,100,0.00,,,0.00,Weather View 32 v70,2013-04-01 07:48:00,
2013-04-01 03:53:00,49.0,49.0,29.77,North,0,5.0,15.0,100,0.00,,,0.00,Weather View 32 v70,2013-04-01 07:53:00,
2013-04-01 03:59:00,48.0,48.0,29.77,North,0,4.0,15.0,100,0.00,,,0.00,Weather View 32 v70,2013-04-01 07:59:00,
2013-04-01 04:04:00,48.0,48.0,29.77,NW,315,6.0,15.0,100,0.00,,,0.00,Weather View 32 v70,2013-04-01 08:04:00,
2013-04-01 04:09:00,48.0,48.0,29.77,North,0,3.0,14.0,100,0.00,,,0.00,Weather View 32 v70,2013-04-01 08:09:00,
2013-04-01 04:14:00,48.0,48.0,29.78,NNE,22,5.0,14.0,100,0.00,,,0.00,Weather View 32 v70,2013-04-01 08:14:00,
2013-04-01 04:19:00,48.0,48.0,29.78,NW,315,5.0,14.0,100,0.00,,,0.00,Weather View 32 v70,2013-04-01 08:19:00,
2013-04-01 04:24:00,48.0,48.0,29.77,North,0,5.0,11.0,100,0.00,,,0.00,Weather View 32 v70,2013-04-01 08:24:00,
2013-04-01 04:29:00,48.0,48.0,29.78,NNW,338,8.0,13.0,100,0.00,,,0.00,Weather View 32 v70,2013-04-01 08:29:00,
2013-04-01 04:34:00,48.0,48.0,29.78,NW,315,5.0,13.0,100,0.00,,,0.00,Weather View 32 v70,2013-04-01 08:34:00,
2013-04-01 04:39:00,47.0,47.0,29.78,West,270,3.0,13.0,100,0.00,,,0.00,Weather View 32 v70,2013-04-01 08:39:00,
2013-04-01 04:44:00,47.0,47.0,29.78,North,0,5.0,13.0,100,0.00,,,0.00,Weather View 32 v70,2013-04-01 08:44:00,
2013-04-01 04:49:00,47.0,47.0,29.78,WNW,292,5.0,13.0,100,0.00,,,0.00,Weather View 32 v70,2013-04-01 08:49:00,
2013-04-01 04:54:00,47.0,46.7,29.78,NW,315,3.0,13.0,99,0.00,,,0.00,Weather View 32 v70,2013-04-01 08:54:00,
2013-04-01 04:59:00,47.0,46.7,29.78,WNW,292,5.0,13.0,99,0.00,,,0.00,Weather View 32 v70,2013-04-01 08:59:00,
2013-04-01 05:04:00,47.0,46.5,29.78,WNW,292,6.0,13.0,98,0.00,,,0.00,Weather View 32 v70,2013-04-01 09:04:00,
2013-04-01 05:09:00,47.0,46.2,29.78,WNW,292,3.0,13.0,97,0.00,,,0.00,Weather View 32 v70,2013-04-01 09:09:00,
2013-04-01 05:14:00,47.0,46.2,29.78,North,0,6.0,13.0,97,0.00,,,0.00,Weather View 32 v70,2013-04-01 09:14:00,
2013-04-01 05:19:00,47.0,45.9,29.79,WNW,292,3.0,13.0,96,0.00,,,0.00,Weather View 32 v70,2013-04-01 09:19:00,
2013-04-01 05:24:00,47.0,45.9,29.78,West,270,3.0,13.0,96,0.00,,,0.00,Weather View 32 v70,2013-04-01 09:24:00,
2013-04-01 05:29:00,47.0,45.6,29.78,SW,225,2.0,12.0,95,0.00,,,0.00,Weather View 32 v70,2013-04-01 09:29:00,
2013-04-01 05:34:00,47.0,45.6,29.78,NW,315,3.0,11.0,95,0.00,,,0.00,Weather View 32 v70,2013-04-01 09:34:00,
2013-04-01 05:39:00,47.0,45.6,29.78,WNW,292,3.0,11.0,95,0.00,,,0.00,Weather View 32 v70,2013-04-01 09:39:00,
2013-04-01 05:44:00,47.0,45.6,29.79,North,0,4.0,11.0,95,0.00,,,0.00,Weather View 32 v70,2013-04-01 09:44:00,
2013-04-01 05:49:00,47.0,45.6,29.79,NW,315,5.0,10.0,95,0.00,,,0.00,Weather View 32 v70,2013-04-01 09:49:00,
2013-04-01 05:54:00,47.0,45.6,29.79,WNW,292,8.0,10.0,95,0.00,,,0.00,Weather View 32 v70,2013-04-01 09:54:00,
2013-04-01 05:59:00,47.0,45.4,29.79,WNW,292,3.0,10.0,94,0.00,,,0.00,Weather View 32 v70,2013-04-01 09:59:00,
2013-04-01 06:04:00,47.0,45.1,29.79,WNW,292,4.0,10.0,93,0.00,,,0.00,Weather View 32 v70,2013-04-01 10:04:00,
2013-04-01 06:09:00,47.0,45.1,29.80,NW,315,5.0,10.0,93,0.00,,,0.00,Weather View 32 v70,2013-04-01 10:09:00,
2013-04-01 06:14:00,47.0,45.1,29.80,NW,315,6.0,10.0,93,0.00,,,0.00,Weather View 32 v70,2013-04-01 10:14:00,
2013-04-01 06:19:00,47.0,45.1,29.80,North,0,8.0,10.0,93,0.00,,,0.00,Weather View 32 v70,2013-04-01 10:19:00,
2013-04-01 06:24:00,46.0,44.1,29.80,NNW,338,5.0,10.0,93,0.00,,,0.00,Weather View 32 v70,2013-04-01 10:24:00,
2013-04-01 06:29:00,46.0,44.1,29.80,WNW,292,6.0,10.0,93,0.00,,,0.00,Weather View 32 v70,2013-04-01 10:29:00,
2013-04-01 06:34:00,46.0,44.1,29.80,NW,315,5.0,10.0,93,0.00,,,0.00,Weather View 32 v70,2013-04-01 10:34:00,
2013-04-01 06:39:00,46.0,44.1,29.81,North,0,4.0,10.0,93,0.00,,,0.00,Weather View 32 v70,2013-04-01 10:39:00,
2013-04-01 06:44:00,46.0,44.1,29.81,NNW,338,4.0,10.0,93,0.00,,,0.00,Weather View 32 v70,2013-04-01 10:44:00,
2013-04-01 06:49:00,46.0,44.1,29.81,NW,315,4.0,10.0,93,0.00,,,0.00,Weather View 32 v70,2013-04-01 10:49:00,
2013-04-01 06:54:00,46.0,44.1,29.81,NW,315,2.0,10.0,93,0.00,,,0.00,Weather View 32 v70,2013-04-01 10:54:00,
2013-04-01 06:59:00,46.0,44.1,29.81,NNW,338,3.0,10.0,93,0.00,,,0.00,Weather View 32 v70,2013-04-01 10:59:00,
2013-04-01 07:04:00,46.0,44.1,29.81,NNW,338,4.0,10.0,93,0.00,,,0.00,Weather View 32 v70,2013-04-01 11:04:00,
2013-04-01 07:09:00,46.0,43.8,29.82,NNE,22,3.0,10.0,92,0.00,,,0.00,Weather View 32 v70,2013-04-01 11:09:00,
2013-04-01 07:14:00,46.0,43.8,29.82,NW,315,2.0,10.0,92,0.00,,,0.00,Weather View 32 v70,2013-04-01 11:14:00,
2013-04-01 07:19:00,46.0,43.8,29.82,NNW,338,3.0,10.0,92,0.00,,,0.00,Weather View 32 v70,2013-04-01 11:19:00,
2013-04-01 07:24:00,46.0,44.1,29.82,WNW,292,3.0,10.0,93,0.00,,,0.00,Weather View 32 v70,2013-04-01 11:24:00,
2013-04-01 07:29:00,46.0,44.1,29.82,NW,315,3.0,8.0,93,0.00,,,0.00,Weather View 32 v70,2013-04-01 11:29:00,
2013-04-01 07:34:00,46.0,43.8,29.82,NW,315,4.0,8.0,92,0.00,,,0.00,Weather View 32 v70,2013-04-01 11:34:00,
2013-04-01 07:39:00,46.0,43.5,29.83,WNW,292,1.0,6.0,91,0.00,,,0.00,Weather View 32 v70,2013-04-01 11:39:00,
2013-04-01 07:44:00,46.0,43.5,29.83,NW,315,3.0,6.0,91,0.00,,,0.00,Weather View 32 v70,2013-04-01 11:44:00,
2013-04-01 07:49:00,46.0,43.5,29.83,WNW,292,3.0,6.0,91,0.00,,,0.00,Weather View 32 v70,2013-04-01 11:49:00,
2013-04-01 07:54:00,46.0,43.2,29.83,WNW,292,3.0,6.0,90,0.00,,,0.00,Weather View 32 v70,2013-04-01 11:54:00,
2013-04-01 07:59:00,46.0,43.2,29.83,NNE,22,2.0,6.0,90,0.00,,,0.00,Weather View 32 v70,2013-04-01 11:59:00,
2013-04-01 08:05:00,46.0,43.2,29.83,North,0,2.0,6.0,90,0.00,,,0.00,Weather View 32 v70,2013-04-01 12:05:00,
2013-04-01 08:10:00,46.0,43.2,29.84,NW,315,2.0,6.0,90,0.00,,,0.00,Weather View 32 v70,2013-04-01 12:10:00,
2013-04-01 08:15:00,46.0,43.2,29.84,NW,315,3.0,6.0,90,0.00,,,0.00,Weather View 32 v70,2013-04-01 12:15:00,
2013-04-01 08:20:00,46.0,42.9,29.84,NW,315,4.0,6.0,89,0.00,,,0.00,Weather View 32 v70,2013-04-01 12:20:00,
2013-04-01 08:25:00,46.0,42.9,29.84,NW,315,5.0,6.0,89,0.00,,,0.00,Weather View 32 v70,2013-04-01 12:25:00,
2013-04-01 08:30:00,46.0,42.9,29.84,NNW,338,4.0,6.0,89,0.00,,,0.00,Weather View 32 v70,2013-04-01 12:30:00,
2013-04-01 08:35:00,47.0,43.6,29.84,NE,45,2.0,9.0,88,0.00,,,0.00,Weather View 32 v70,2013-04-01 12:35:00,
2013-04-01 08:40:00,47.0,43.6,29.84,North,0,4.0,9.0,88,0.00,,,0.00,Weather View 32 v70,2013-04-01 12:40:00,
2013-04-01 08:45:00,47.0,43.9,29.85,North,0,3.0,9.0,89,0.00,,,0.00,Weather View 32 v70,2013-04-01 12:45:00,
2013-04-01 08:50:00,47.0,43.9,29.85,NNW,338,4.0,9.0,89,0.00,,,0.00,Weather View 32 v70,2013-04-01 12:50:00,
2013-04-01 08:55:00,47.0,43.9,29.85,NNW,338,3.0,9.0,89,0.00,,,0.00,Weather View 32 v70,2013-04-01 12:55:00,
2013-04-01 09:00:00,48.0,44.6,29.85,WNW,292,3.0,9.0,88,0.00,,,0.00,Weather View 32 v70,2013-04-01 13:00:00,
2013-04-01 09:05:00,48.0,44.3,29.85,NNW,338,3.0,9.0,87,0.00,,,0.00,Weather View 32 v70,2013-04-01 13:05:00,
2013-04-01 09:10:00,49.0,45.3,29.85,NNW,338,4.0,9.0,87,0.00,,,0.00,Weather View 32 v70,2013-04-01 13:10:00,
2013-04-01 09:15:00,49.0,45.0,29.85,NW,315,3.0,9.0,86,0.00,,,0.00,Weather View 32 v70,2013-04-01 13:15:00,
2013-04-01 09:20:00,49.0,45.0,29.85,NW,315,5.0,9.0,86,0.00,,,0.00,Weather View 32 v70,2013-04-01 13:20:00,
2013-04-01 09:25:00,50.0,45.7,29.85,West,270,2.0,9.0,85,0.00,,,0.00,Weather View 32 v70,2013-04-01 13:25:00,
2013-04-01 09:30:00,50.0,45.7,29.85,North,0,3.0,9.0,85,0.00,,,0.00,Weather View 32 v70,2013-04-01 13:30:00,
2013-04-01 09:35:00,50.0,45.3,29.85,NW,315,5.0,8.0,84,0.00,,,0.00,Weather View 32 v70,2013-04-01 13:35:00,
2013-04-01 09:40:00,51.0,45.7,29.85,WNW,292,5.0,8.0,82,0.00,,,0.00,Weather View 32 v70,2013-04-01 13:40:00,
2013-04-01 09:45:00,51.0,44.0,29.85,NW,315,5.0,8.0,77,0.00,,,0.00,Weather View 32 v70,2013-04-01 13:45:00,
2013-04-01 09:50:00,52.0,44.3,29.85,NW,315,4.0,8.0,75,0.00,,,0.00,Weather View 32 v70,2013-04-01 13:50:00,
2013-04-01 09:55:00,52.0,42.9,29.85,NW,315,5.0,10.0,71,0.00,,,0.00,Weather View 32 v70,2013-04-01 13:55:00,
2013-04-01 10:00:00,53.0,43.5,29.85,WNW,292,8.0,10.0,70,0.00,,,0.00,Weather View 32 v70,2013-04-01 14:00:00,
2013-04-01 10:05:00,53.0,43.8,29.85,NW,315,4.0,10.0,71,0.00,,,0.00,Weather View 32 v70,2013-04-01 14:05:00,
2013-04-01 10:10:00,53.0,44.6,29.85,NW,315,5.0,10.0,73,0.00,,,0.00,Weather View 32 v70,2013-04-01 14:10:00,
2013-04-01 10:15:00,53.0,44.2,29.85,West,270,6.0,10.0,72,0.00,,,0.00,Weather View 32 v70,2013-04-01 14:15:00,
2013-04-01 10:20:00,54.0,44.8,29.85,WNW,292,6.0,10.0,71,0.00,,,0.00,Weather View 32 v70,2013-04-01 14:20:00,
2013-04-01 10:25:00,54.0,44.0,29.85,WNW,292,6.0,10.0,69,0.00,,,0.00,Weather View 32 v70,2013-04-01 14:25:00,
2013-04-01 10:30:00,55.0,43.8,29.85,West,270,6.0,10.0,66,0.00,,,0.00,Weather View 32 v70,2013-04-01 14:30:00,
2013-04-01 10:35:00,55.0,42.2,29.85,WNW,292,7.0,10.0,62,0.00,,,0.00,Weather View 32 v70,2013-04-01 14:35:00,
2013-04-01 10:40:00,55.0,40.5,29.85,WNW,292,9.0,14.0,58,0.00,,,0.00,Weather View 32 v70,2013-04-01 14:40:00,
2013-04-01 10:45:00,56.0,41.8,29.85,West,270,9.0,14.0,59,0.00,,,0.00,Weather View 32 v70,2013-04-01 14:45:00,
2013-04-01 10:50:00,56.0,43.1,29.85,WNW,292,11.0,15.0,62,0.00,,,0.00,Weather View 32 v70,2013-04-01 14:50:00,
2013-04-01 10:55:00,56.0,41.4,29.85,WNW,292,6.0,15.0,58,0.00,,,0.00,Weather View 32 v70,2013-04-01 14:55:00,
2013-04-01 11:00:00,57.0,44.1,29.85,North,0,8.0,15.0,62,0.00,,,0.00,Weather View 32 v70,2013-04-01 15:00:00,
2013-04-01 11:05:00,57.0,44.1,29.85,North,0,14.0,16.0,62,0.00,,,0.00,Weather View 32 v70,2013-04-01 15:05:00,
2013-04-01 11:10:00,57.0,43.2,29.86,NNE,22,11.0,23.0,60,0.00,,,0.00,Weather View 32 v70,2013-04-01 15:10:00,
2013-04-01 11:15:00,57.0,42.8,29.86,NW,315,11.0,23.0,59,0.00,,,0.00,Weather View 32 v70,2013-04-01 15:15:00,
2013-04-01 11:20:00,57.0,41.0,29.86,NW,315,12.0,23.0,55,0.00,,,0.00,Weather View 32 v70,2013-04-01 15:20:00,
2013-04-01 11:25:00,58.0,42.8,29.86,NW,315,5.0,23.0,57,0.00,,,0.00,Weather View 32 v70,2013-04-01 15:25:00,
2013-04-01 11:30:00,58.0,41.4,29.86,North,0,10.0,23.0,54,0.00,,,0.00,Weather View 32 v70,2013-04-01 15:30:00,
2013-04-01 11:35:00,58.0,42.4,29.86,North,0,8.0,23.0,56,0.00,,,0.00,Weather View 32 v70,2013-04-01 15:35:00,
2013-04-01 11:40:00,59.0,42.8,29.86,North,0,6.0,23.0,55,0.00,,,0.00,Weather View 32 v70,2013-04-01 15:40:00,
2013-04-01 11:45:00,59.0,41.9,29.86,WNW,292,11.0,23.0,53,0.00,,,0.00,Weather View 32 v70,2013-04-01 15:45:00,
2013-04-01 11:50:00,59.0,43.3,29.86,NNE,22,12.0,23.0,56,0.00,,,0.00,Weather View 32 v70,2013-04-01 15:50:00,
2013-04-01 11:55:00,59.0,41.9,29.86,NNW,338,7.0,23.0,53,0.00,,,0.00,Weather View 32 v70,2013-04-01 15:55:00,
2013-04-01 12:00:00,59.0,43.3,29.86,NNE,22,9.0,23.0,56,0.00,,,0.00,Weather View 32 v70,2013-04-01 16:00:00,
2013-04-01 12:05:00,60.0,44.7,29.86,NNE,22,8.0,23.0,57,0.00,,,0.00,Weather View 32 v70,2013-04-01 16:05:00,
2013-04-01 12:10:00,60.0,45.1,29.85,North,0,3.0,18.0,58,0.00,,,0.00,Weather View 32 v70,2013-04-01 16:10:00,
2013-04-01 12:15:00,60.0,43.3,29.86,North,0,3.0,18.0,54,0.00,,,0.00,Weather View 32 v70,2013-04-01 16:15:00,
2013-04-01 12:20:00,61.0,43.2,29.85,NNE,22,6.0,18.0,52,0.00,,,0.00,Weather View 32 v70,2013-04-01 16:20:00,
2013-04-01 12:25:00,61.0,44.2,29.85,NNE,22,8.0,18.0,54,0.00,,,0.00,Weather View 32 v70,2013-04-01 16:25:00,
2013-04-01 12:30:00,61.0,43.2,29.86,North,0,5.0,18.0,52,0.00,,,0.00,Weather View 32 v70,2013-04-01 16:30:00,
2013-04-01 12:35:00,62.0,45.1,29.85,North,0,5.0,18.0,54,0.00,,,0.00,Weather View 32 v70,2013-04-01 16:35:00,
2013-04-01 12:40:00,62.0,44.6,29.85,NNE,22,6.0,18.0,53,0.00,,,0.00,Weather View 32 v70,2013-04-01 16:40:00,
2013-04-01 12:45:00,62.0,44.6,29.85,NE,45,8.0,18.0,53,0.00,,,0.00,Weather View 32 v70,2013-04-01 16:45:00,
2013-04-01 12:50:00,62.0,41.5,29.85,North,0,4.0,16.0,47,0.00,,,0.00,Weather View 32 v70,2013-04-01 16:50:00,
2013-04-01 12:55:00,61.0,40.0,29.85,WNW,292,5.0,16.0,46,0.00,,,0.00,Weather View 32 v70,2013-04-01 16:55:00,
2013-04-01 13:01:00,62.0,42.6,29.84,NNE,22,11.0,16.0,49,0.00,,,0.00,Weather View 32 v70,2013-04-01 17:01:00,
2013-04-01 13:06:00,62.0,43.1,29.84,ENE,68,5.0,16.0,50,0.00,,,0.00,Weather View 32 v70,2013-04-01 17:06:00,
2013-04-01 13:11:00,63.0,43.5,29.84,West,270,8.0,16.0,49,0.00,,,0.00,Weather View 32 v70,2013-04-01 17:11:00,
2013-04-01 13:16:00,63.0,43.0,29.84,NW,315,4.0,16.0,48,0.00,,,0.00,Weather View 32 v70,2013-04-01 17:16:00,
2013-04-01 13:21:00,63.0,42.4,29.84,West,270,5.0,16.0,47,0.00,,,0.00,Weather View 32 v70,2013-04-01 17:21:00,
2013-04-01 13:26:00,63.0,42.4,29.84,NNE,22,8.0,16.0,47,0.00,,,0.00,Weather View 32 v70,2013-04-01 17:26:00,
2013-04-01 13:31:00,63.0,42.4,29.84,North,0,6.0,16.0,47,0.00,,,0.00,Weather View 32 v70,2013-04-01 17:31:00,
2013-04-01 13:37:00,63.0,44.0,29.84,North,0,11.0,16.0,50,0.00,,,0.00,Weather View 32 v70,2013-04-01 17:37:00,
2013-04-01 13:42:00,64.0,43.9,29.84,WNW,292,5.0,15.0,48,0.00,,,0.00,Weather View 32 v70,2013-04-01 17:42:00,
2013-04-01 13:47:00,64.0,43.3,29.84,NNW,338,6.0,15.0,47,0.00,,,0.00,Weather View 32 v70,2013-04-01 17:47:00,
2013-04-01 13:52:00,64.0,43.9,29.83,NNW,338,8.0,15.0,48,0.00,,,0.00,Weather View 32 v70,2013-04-01 17:52:00,
2013-04-01 13:57:00,64.0,43.3,29.84,NNE,22,10.0,15.0,47,0.00,,,0.00,Weather View 32 v70,2013-04-01 17:57:00,
2013-04-01 14:02:00,64.0,42.8,29.84,NW,315,7.0,15.0,46,0.00,,,0.00,Weather View 32 v70,2013-04-01 18:02:00,
2013-04-01 14:07:00,64.0,42.8,29.84,North,0,11.0,15.0,46,0.00,,,0.00,Weather View 32 v70,2013-04-01 18:07:00,
2013-04-01 14:12:00,63.0,43.5,29.83,NNE,22,6.0,18.0,49,0.00,,,0.00,Weather View 32 v70,2013-04-01 18:12:00,
2013-04-01 14:17:00,64.0,44.9,29.83,NNE,22,14.0,18.0,50,0.00,,,0.00,Weather View 32 v70,2013-04-01 18:17:00,
2013-04-01 14:22:00,64.0,44.9,29.83,North,0,6.0,19.0,50,0.00,,,0.00,Weather View 32 v70,2013-04-01 18:22:00,
2013-04-01 14:27:00,63.0,45.1,29.83,North,0,11.0,19.0,52,0.00,,,0.00,Weather View 32 v70,2013-04-01 18:27:00,
2013-04-01 14:32:00,63.0,44.0,29.83,NNE,22,10.0,19.0,50,0.00,,,0.00,Weather View 32 v70,2013-04-01 18:32:00,
2013-04-01 14:37:00,63.0,44.5,29.83,NNE,22,10.0,20.0,51,0.00,,,0.00,Weather View 32 v70,2013-04-01 18:37:00,
2013-04-01 14:42:00,63.0,44.0,29.83,NNE,22,12.0,20.0,50,0.00,,,0.00,Weather View 32 v70,2013-04-01 18:42:00,
2013-04-01 14:48:00,63.0,44.0,29.83,NNE,22,5.0,20.0,50,0.00,,,0.00,Weather View 32 v70,2013-04-01 18:48:00,
2013-04-01 14:53:00,63.0,44.0,29.83,NNE,22,8.0,20.0,50,0.32,,,0.00,Weather View 32 v70,2013-04-01 18:53:00,
2013-04-01 14:58:00,63.0,44.5,29.83,NNE,22,8.0,20.0,51,0.00,,,0.00,Weather View 32 v70,2013-04-01 18:58:00,
2013-04-01 15:03:00,62.0,42.0,29.82,WNW,292,5.0,20.0,48,0.00,,,0.00,Weather View 32 v70,2013-04-01 19:03:00,
2013-04-01 15:08:00,62.0,42.6,29.82,NNE,22,3.0,20.0,49,0.00,,,0.00,Weather View 32 v70,2013-04-01 19:08:00,
2013-04-01 15:13:00,62.0,42.6,29.82,North,0,8.0,20.0,49,0.00,,,0.00,Weather View 32 v70,2013-04-01 19:13:00,
2013-04-01 15:18:00,63.0,41.8,29.82,WNW,292,4.0,20.0,46,0.00,,,0.00,Weather View 32 v70,2013-04-01 19:18:00,
2013-04-01 15:23:00,63.0,43.0,29.82,NE,45,2.0,20.0,48,0.00,,,0.00,Weather View 32 v70,2013-04-01 19:23:00,
2013-04-01 15:28:00,62.0,42.0,29.82,North,0,4.0,20.0,48,0.00,,,0.00,Weather View 32 v70,2013-04-01 19:28:00,
2013-04-01 15:33:00,62.0,42.0,29.82,NE,45,8.0,20.0,48,0.00,,,0.00,Weather View 32 v70,2013-04-01 19:33:00,
2013-04-01 15:38:00,61.0,41.1,29.82,NNE,22,9.0,18.0,48,0.00,,,0.00,Weather View 32 v70,2013-04-01 19:38:00,
2013-04-01 15:43:00,61.0,41.1,29.82,NE,45,7.0,18.0,48,0.00,,,0.00,Weather View 32 v70,2013-04-01 19:43:00,
2013-04-01 15:48:00,61.0,41.1,29.82,NNW,338,3.0,18.0,48,0.00,,,0.00,Weather View 32 v70,2013-04-01 19:48:00,
2013-04-01 15:53:00,61.0,40.6,29.82,West,270,3.0,18.0,47,0.00,,,0.00,Weather View 32 v70,2013-04-01 19:53:00,
2013-04-01 15:58:00,62.0,41.5,29.82,NW,315,3.0,14.0,47,0.00,,,0.00,Weather View 32 v70,2013-04-01 19:58:00,
2013-04-01 16:03:00,61.0,39.5,29.82,NNW,338,6.0,14.0,45,0.00,,,0.00,Weather View 32 v70,2013-04-01 20:03:00,
2013-04-01 16:08:00,61.0,40.0,29.82,WNW,292,11.0,16.0,46,0.00,,,0.00,Weather View 32 v70,2013-04-01 20:08:00,
2013-04-01 16:13:00,62.0,41.5,29.82,WNW,292,8.0,16.0,47,0.00,,,0.00,Weather View 32 v70,2013-04-01 20:13:00,
2013-04-01 16:18:00,62.0,40.4,29.83,West,270,9.0,16.0,45,0.00,,,0.00,Weather View 32 v70,2013-04-01 20:18:00,
2013-04-01 16:23:00,62.0,40.4,29.82,SW,225,6.0,16.0,45,0.00,,,0.00,Weather View 32 v70,2013-04-01 20:23:00,
2013-04-01 16:28:00,62.0,40.4,29.82,NNW,338,3.0,16.0,45,0.00,,,0.00,Weather View 32 v70,2013-04-01 20:28:00,
2013-04-01 16:33:00,62.0,39.8,29.83,WNW,292,6.0,16.0,44,0.00,,,0.00,Weather View 32 v70,2013-04-01 20:33:00,
2013-04-01 16:38:00,62.0,40.4,29.82,NE,45,5.0,16.0,45,0.00,,,0.00,Weather View 32 v70,2013-04-01 20:38:00,
2013-04-01 16:43:00,61.0,40.0,29.82,NNE,22,8.0,16.0,46,0.00,,,0.00,Weather View 32 v70,2013-04-01 20:43:00,
2013-04-01 16:48:00,61.0,40.0,29.82,NNE,22,11.0,16.0,46,0.00,,,0.00,Weather View 32 v70,2013-04-01 20:48:00,
2013-04-01 16:53:00,60.0,39.7,29.82,NW,315,5.0,16.0,47,0.00,,,0.00,Weather View 32 v70,2013-04-01 20:53:00,
2013-04-01 16:58:00,61.0,40.0,29.83,NNW,338,8.0,18.0,46,0.00,,,0.00,Weather View 32 v70,2013-04-01 20:58:00,
2013-04-01 17:03:00,61.0,39.5,29.82,North,0,9.0,18.0,45,0.00,,,0.00,Weather View 32 v70,2013-04-01 21:03:00,
2013-04-01 17:08:00,62.0,40.4,29.82,North,0,5.0,18.0,45,0.00,,,0.00,Weather View 32 v70,2013-04-01 21:08:00,
2013-04-01 17:13:00,62.0,40.4,29.82,NNE,22,8.0,18.0,45,0.00,,,0.00,Weather View 32 v70,2013-04-01 21:13:00,
2013-04-01 17:18:00,61.0,39.5,29.82,NW,315,7.0,18.0,45,0.00,,,0.00,Weather View 32 v70,2013-04-01 21:18:00,
2013-04-01 17:23:00,61.0,40.6,29.82,NNW,338,7.0,18.0,47,0.00,,,0.00,Weather View 32 v70,2013-04-01 21:23:00,
2013-04-01 17:28:00,61.0,40.0,29.82,WNW,292,8.0,18.0,46,0.00,,,0.00,Weather View 32 v70,2013-04-01 21:28:00,
2013-04-01 17:33:00,61.0,40.0,29.82,West,270,6.0,18.0,46,0.00,,,0.00,Weather View 32 v70,2013-04-01 21:33:00,
2013-04-01 17:38:00,61.0,40.6,29.83,WNW,292,12.0,18.0,47,0.00,,,0.00,Weather View 32 v70,2013-04-01 21:38:00,
2013-04-01 17:43:00,60.0,39.7,29.83,NNW,338,9.0,18.0,47,0.00,,,0.00,Weather View 32 v70,2013-04-01 21:43:00,
2013-04-01 17:48:00,60.0,40.2,29.83,West,270,5.0,18.0,48,0.00,,,0.00,Weather View 32 v70,2013-04-01 21:48:00,
2013-04-01 17:53:00,60.0,40.7,29.83,NNW,338,6.0,18.0,49,0.00,,,0.00,Weather View 32 v70,2013-04-01 21:53:00,
2013-04-01 17:59:00,60.0,40.7,29.83,West,270,8.0,18.0,49,0.00,,,0.00,Weather View 32 v70,2013-04-01 21:59:00,
2013-04-01 18:04:00,60.0,41.3,29.83,WNW,292,4.0,18.0,50,0.00,,,0.00,Weather View 32 v70,2013-04-01 22:04:00,
2013-04-01 18:08:00,60.0,40.7,29.83,WSW,248,6.0,18.0,49,0.00,,,0.00,Weather View 32 v70,2013-04-01 22:08:00,
2013-04-01 18:14:00,60.0,41.8,29.83,West,270,8.0,18.0,51,0.00,,,0.00,Weather View 32 v70,2013-04-01 22:14:00,
2013-04-01 18:19:00,59.0,39.8,29.83,NW,315,6.0,18.0,49,0.00,,,0.00,Weather View 32 v70,2013-04-01 22:19:00,
2013-04-01 18:24:00,59.0,40.3,29.83,WSW,248,8.0,16.0,50,0.00,,,0.00,Weather View 32 v70,2013-04-01 22:24:00,
2013-04-01 18:29:00,59.0,40.3,29.83,West,270,8.0,16.0,50,0.00,,,0.00,Weather View 32 v70,2013-04-01 22:29:00,
2013-04-01 18:34:00,59.0,40.3,29.84,West,270,9.0,16.0,50,0.00,,,0.00,Weather View 32 v70,2013-04-01 22:34:00,
2013-04-01 18:39:00,58.0,39.4,29.84,West,270,5.0,16.0,50,0.00,,,0.00,Weather View 32 v70,2013-04-01 22:39:00,
2013-04-01 18:44:00,58.0,39.4,29.84,West,270,6.0,16.0,50,0.00,,,0.00,Weather View 32 v70,2013-04-01 22:44:00,
2013-04-01 18:49:00,58.0,41.4,29.84,North,0,7.0,16.0,54,0.00,,,0.00,Weather View 32 v70,2013-04-01 22:49:00,
2013-04-01 18:54:00,58.0,42.8,29.84,NNE,22,6.0,14.0,57,0.00,,,0.00,Weather View 32 v70,2013-04-01 22:54:00,
2013-04-01 18:59:00,57.0,42.3,29.84,North,0,6.0,14.0,58,0.00,,,0.00,Weather View 32 v70,2013-04-01 22:59:00,
2013-04-01 19:04:00,57.0,42.3,29.84,West,270,4.0,14.0,58,0.00,,,0.00,Weather View 32 v70,2013-04-01 23:04:00,
2013-04-01 19:09:00,57.0,41.9,29.84,WSW,248,3.0,14.0,57,0.00,,,0.00,Weather View 32 v70,2013-04-01 23:09:00,
2013-04-01 19:14:00,56.0,40.0,29.84,West,270,5.0,14.0,55,0.00,,,0.00,Weather View 32 v70,2013-04-01 23:14:00,
2013-04-01 19:19:00,56.0,40.0,29.84,NNE,22,2.0,14.0,55,0.00,,,0.00,Weather View 32 v70,2013-04-01 23:19:00,
2013-04-01 19:24:00,56.0,41.4,29.84,North,0,5.0,14.0,58,0.00,,,0.00,Weather View 32 v70,2013-04-01 23:24:00,
2013-04-01 19:29:00,56.0,42.7,29.84,North,0,7.0,14.0,61,0.00,,,0.00,Weather View 32 v70,2013-04-01 23:29:00,
2013-04-01 19:34:00,55.0,42.6,29.85,NNE,22,3.0,14.0,63,0.00,,,0.00,Weather View 32 v70,2013-04-01 23:34:00,
2013-04-01 19:39:00,55.0,43.4,29.85,North,0,6.0,11.0,65,0.00,,,0.00,Weather View 32 v70,2013-04-01 23:39:00,
2013-04-01 19:44:00,54.0,42.9,29.85,NNE,22,7.0,11.0,66,0.00,,,0.00,Weather View 32 v70,2013-04-01 23:44:00,
2013-04-01 19:49:00,54.0,43.3,29.85,NNE,22,5.0,11.0,67,0.00,,,0.00,Weather View 32 v70,2013-04-01 23:49:00,
2013-04-01 19:54:00,54.0,43.7,29.85,NNE,22,5.0,11.0,68,0.00,,,0.00,Weather View 32 v70,2013-04-01 23:54:00,
2013-04-01 19:59:00,53.0,42.7,29.85,North,0,3.0,11.0,68,0.00,,,0.00,Weather View 32 v70,2013-04-01 23:59:00,
2013-04-01 20:04:00,53.0,43.1,29.85,NNE,22,5.0,11.0,69,0.00,,,0.00,Weather View 32 v70,2013-04-02 00:04:00,
2013-04-01 20:09:00,53.0,43.1,29.85,NNE,22,5.0,11.0,69,0.00,,,0.00,Weather View 32 v70,2013-04-02 00:09:00,
2013-04-01 20:14:00,53.0,43.5,29.85,NNE,22,4.0,8.0,70,0.00,,,0.00,Weather View 32 v70,2013-04-02 00:14:00,
2013-04-01 20:19:00,53.0,43.5,29.85,North,0,6.0,8.0,70,0.00,,,0.00,Weather View 32 v70,2013-04-02 00:19:00,
2013-04-01 20:24:00,52.0,42.5,29.85,NNE,22,5.0,8.0,70,0.00,,,0.00,Weather View 32 v70,2013-04-02 00:24:00,
2013-04-01 20:29:00,52.0,42.1,29.85,North,0,3.0,8.0,69,0.00,,,0.00,Weather View 32 v70,2013-04-02 00:29:00,
2013-04-01 20:34:00,52.0,42.1,29.85,North,0,5.0,8.0,69,0.00,,,0.00,Weather View 32 v70,2013-04-02 00:34:00,
2013-04-01 20:39:00,52.0,41.7,29.85,NW,315,6.0,8.0,68,0.00,,,0.00,Weather View 32 v70,2013-04-02 00:39:00,
2013-04-01 20:44:00,52.0,41.4,29.85,NNW,338,5.0,8.0,67,0.00,,,0.00,Weather View 32 v70,2013-04-02 00:44:00,
2013-04-01 20:49:00,53.0,41.5,29.85,WNW,292,6.0,9.0,65,0.00,,,0.00,Weather View 32 v70,2013-04-02 00:49:00,
2013-04-01 20:54:00,53.0,40.7,29.85,NNW,338,6.0,11.0,63,0.00,,,0.00,Weather View 32 v70,2013-04-02 00:54:00,
2013-04-01 20:59:00,53.0,40.3,29.86,NNW,338,7.0,12.0,62,0.00,,,0.00,Weather View 32 v70,2013-04-02 00:59:00,
2013-04-01 21:04:00,53.0,40.3,29.86,NW,315,5.0,12.0,62,0.00,,,0.00,Weather View 32 v70,2013-04-02 01:04:00,
2013-04-01 21:09:00,53.0,39.9,29.86,NNW,338,5.0,12.0,61,0.00,,,0.00,Weather View 32 v70,2013-04-02 01:09:00,
2013-04-01 21:14:00,53.0,39.9,29.86,North,0,3.0,12.0,61,0.00,,,0.00,Weather View 32 v70,2013-04-02 01:14:00,
2013-04-01 21:19:00,52.0,38.9,29.86,NNE,22,5.0,12.0,61,0.00,,,0.00,Weather View 32 v70,2013-04-02 01:19:00,
2013-04-01 21:24:00,52.0,38.5,29.86,North,0,5.0,12.0,60,0.00,,,0.00,Weather View 32 v70,2013-04-02 01:24:00,
2013-04-01 21:30:00,52.0,38.5,29.86,NW,315,5.0,12.0,60,0.00,,,0.00,Weather View 32 v70,2013-04-02 01:30:00,
2013-04-01 21:35:00,52.0,38.1,29.86,NW,315,6.0,12.0,59,0.00,,,0.00,Weather View 32 v70,2013-04-02 01:35:00,
2013-04-01 21:40:00,52.0,38.1,29.86,West,270,4.0,12.0,59,0.00,,,0.00,Weather View 32 v70,2013-04-02 01:40:00,
2013-04-01 21:45:00,52.0,37.7,29.86,WNW,292,5.0,12.0,58,0.00,,,0.00,Weather View 32 v70,2013-04-02 01:45:00,
2013-04-01 21:50:00,52.0,37.2,29.87,WNW,292,8.0,12.0,57,0.00,,,0.00,Weather View 32 v70,2013-04-02 01:50:00,
2013-04-01 21:55:00,52.0,35.4,29.87,WNW,292,8.0,18.0,53,0.00,,,0.00,Weather View 32 v70,2013-04-02 01:55:00,
2013-04-01 22:00:00,53.0,35.8,29.87,West,270,6.0,18.0,52,0.00,,,0.00,Weather View 32 v70,2013-04-02 02:00:00,
2013-04-01 22:05:00,52.0,34.4,29.88,WNW,292,14.0,18.0,51,0.00,,,0.00,Weather View 32 v70,2013-04-02 02:05:00,
2013-04-01 22:10:00,52.0,33.9,29.88,West,270,8.0,18.0,50,0.00,,,0.00,Weather View 32 v70,2013-04-02 02:10:00,
2013-04-01 22:15:00,52.0,33.9,29.88,WNW,292,10.0,18.0,50,0.36,,,0.00,Weather View 32 v70,2013-04-02 02:15:00,
2013-04-01 22:20:00,52.0,33.4,29.88,NW,315,11.0,18.0,49,0.00,,,0.00,Weather View 32 v70,2013-04-02 02:20:00,
2013-04-01 22:25:00,52.0,33.4,29.89,WNW,292,10.0,18.0,49,0.00,,,0.00,Weather View 32 v70,2013-04-02 02:25:00,
2013-04-01 22:30:00,52.0,33.4,29.89,North,0,11.0,18.0,49,0.00,,,0.00,Weather View 32 v70,2013-04-02 02:30:00,
2013-04-01 22:35:00,52.0,33.9,29.89,WNW,292,6.0,18.0,50,0.00,,,0.00,Weather View 32 v70,2013-04-02 02:35:00,
2013-04-01 22:40:00,52.0,33.4,29.89,WNW,292,6.0,18.0,49,0.00,,,0.00,Weather View 32 v70,2013-04-02 02:40:00,
2013-04-01 22:45:00,52.0,34.4,29.89,West,270,6.0,19.0,51,0.00,,,0.00,Weather View 32 v70,2013-04-02 02:45:00,
2013-04-01 22:50:00,51.0,33.0,29.89,NW,315,6.0,19.0,50,0.00,,,0.00,Weather View 32 v70,2013-04-02 02:50:00,
2013-04-01 22:55:00,51.0,33.0,29.89,NW,315,11.0,19.0,50,0.00,,,0.00,Weather View 32 v70,2013-04-02 02:55:00,
2013-04-01 23:00:00,51.0,33.0,29.89,NW,315,12.0,19.0,50,0.00,,,0.00,Weather View 32 v70,2013-04-02 03:00:00,
2013-04-01 23:05:00,51.0,33.0,29.89,WNW,292,16.0,19.0,50,0.00,,,0.00,Weather View 32 v70,2013-04-02 03:05:00,
2013-04-01 23:10:00,51.0,33.5,29.89,WNW,292,8.0,19.0,51,0.00,,,0.00,Weather View 32 v70,2013-04-02 03:10:00,
2013-04-01 23:15:00,51.0,34.0,29.89,NNW,338,6.0,19.0,52,0.00,,,0.00,Weather View 32 v70,2013-04-02 03:15:00,
2013-04-01 23:20:00,51.0,34.0,29.89,NNW,338,7.0,19.0,52,0.00,,,0.00,Weather View 32 v70,2013-04-02 03:20:00,
2013-04-01 23:25:00,51.0,34.0,29.89,West,270,5.0,19.0,52,0.00,,,0.00,Weather View 32 v70,2013-04-02 03:25:00,
2013-04-01 23:30:00,51.0,34.0,29.89,NW,315,5.0,19.0,52,0.00,,,0.00,Weather View 32 v70,2013-04-02 03:30:00,
2013-04-01 23:35:00,51.0,34.0,29.89,NNW,338,4.0,19.0,52,0.00,,,0.00,Weather View 32 v70,2013-04-02 03:35:00,
2013-04-01 23:40:00,50.0,34.0,29.89,North,0,3.0,19.0,54,0.00,,,0.00,Weather View 32 v70,2013-04-02 03:40:00,
2013-04-01 23:45:00,50.0,34.4,29.89,NNW,338,8.0,18.0,55,0.00,,,0.00,Weather View 32 v70,2013-04-02 03:45:00,
2013-04-01 23:50:00,50.0,34.9,29.89,North,0,8.0,18.0,56,0.00,,,0.00,Weather View 32 v70,2013-04-02 03:50:00,
2013-04-01 23:55:00,50.0,35.3,29.89,NW,315,6.0,18.0,57,0.00,,,0.00,Weather View 32 v70,2013-04-02 03:55:00,